Weather in Castiglione di Sicilia

Italy     37°52′49″N   15°07′23″E
temp.,
°C
wind,
m/s
gust,
m/s
humid.,
%
clouds,
%
prec.,
mm/h
press.,
hPa
HPBL,
m
27 september, mon
mon2723:00+20ssw324994 0.1 102120
02:00+20w114234 0.1 102111
05:00+19w22465 0.0 102012
08:00+21wsw114382 0.0 101913
11:00+27n2232100 0.0 1019627
14:00+27nne4239100 0.0 1018644
17:00+25nne2145100 0.1 1017436
20:00+18wnw2180100 0.6 101831
28 september, tue
tue2823:00+18wnw2276100 0.0 101832
02:00+17w338495 0.0 101974
05:00+18wnw349388 0.0 1017175
08:00+17w23906 0.1 1018167
11:00+23nnw33495 0.0 1018970
14:00+25nnw44460 0.0 10171327
17:00+21nnw436512 0.0 1017746
20:00+16wnw22949 0.0 101933
29 september, wed
wed2923:00+16w22885 0.0 102023
02:00+15wsw22915 0.0 101924
05:00+15w229299 0.0 101923
08:00+17w228719 0.0 1020160
11:00+21nnw326861 0.1 1020969
14:00+22n4462100 0.2 10191106
17:00+20nnw446914 0.3 1019754
20:00+15wnw229832 0.4 102169
30 september, thu
thu3023:00+15w229310 0.0 102163
02:00+14w22870 0.1 102120
05:00+13wsw22890 0.0 102022
08:00+15w22765 0.0 102082
11:00+20n3255100 0.0 10201064
14:00+21n435770 0.1 10201171
17:00+19nnw3368100 0.3 1019746
20:00+15wnw2296100 0.4 102046
1 october, fri
fri123:00+14wnw229568 0.0 1021136
02:00+13w22895 0.0 102024
05:00+13wsw22770 0.0 102015
08:00+14wsw22690 0.0 102066
11:00+20nnw33550 0.0 10191153
14:00+21n445314 0.3 10181300
17:00+19nnw44629 0.6 1018986
20:00+14w22935 0.9 101925